TimeEDT,TemperatureF,Dew PointF,Humidity,Sea Level PressureIn,VisibilityMPH,Wind Direction,Wind SpeedMPH,Gust SpeedMPH,PrecipitationIn,Events,Conditions,WindDirDegrees,DateUTC
12:00 AM,66.9,59.0,76,30.00,-9999.0,Calm,Calm,-,N/A,,Clear,0,2013-06-16 04:00:00
1:00 AM,66.0,59.0,78,30.01,-9999.0,WSW,3.5,-,N/A,,Clear,250,2013-06-16 05:00:00
2:00 AM,62.1,57.9,86,30.00,-9999.0,Calm,Calm,-,N/A,,Clear,0,2013-06-16 06:00:00
3:00 AM,61.0,55.0,81,30.00,-9999.0,Calm,Calm,-,N/A,,Clear,0,2013-06-16 07:00:00
4:00 AM,61.0,57.0,87,29.99,-9999.0,Calm,Calm,-,N/A,,Clear,0,2013-06-16 08:00:00
5:00 AM,62.1,57.0,84,30.00,-9999.0,Calm,Calm,-,N/A,,Clear,0,2013-06-16 09:00:00
6:00 AM,62.1,57.9,86,29.99,-9999.0,Calm,Calm,-,N/A,,Clear,0,2013-06-16 10:00:00
7:00 AM,66.0,59.0,78,29.99,-9999.0,Calm,Calm,-,N/A,,Clear,0,2013-06-16 11:00:00
8:00 AM,69.1,61.0,75,29.98,-9999.0,Calm,Calm,-,N/A,,Mostly Cloudy,0,2013-06-16 12:00:00
9:00 AM,79.0,60.1,52,29.97,-9999.0,Calm,Calm,-,N/A,,Mostly Cloudy,0,2013-06-16 13:00:00
10:00 AM,80.1,60.1,50,29.95,-9999.0,Calm,Calm,-,N/A,,Mostly Cloudy,0,2013-06-16 14:00:00
11:00 AM,91.0,57.9,33,29.93,-9999.0,SSW,8.1,-,N/A,,Mostly Cloudy,200,2013-06-16 15:00:00
12:00 PM,93.0,62.1,36,29.89,-9999.0,SSW,9.2,-,N/A,,Mostly Cloudy,200,2013-06-16 16:00:00
1:00 PM,93.9,63.0,36,29.86,-9999.0,SW,13.8,20.7,N/A,,Partly Cloudy,230,2013-06-16 17:00:00
2:00 PM,91.0,62.1,38,29.84,-9999.0,WSW,13.8,23.0,N/A,,Partly Cloudy,250,2013-06-16 18:00:00
3:00 PM,91.9,63.0,38,29.82,-9999.0,WSW,11.5,19.6,N/A,,Partly Cloudy,240,2013-06-16 19:00:00
4:00 PM,91.0,63.0,39,29.81,-9999.0,WSW,17.3,24.2,N/A,,Partly Cloudy,250,2013-06-16 20:00:00
5:00 PM,89.1,61.0,39,29.82,-9999.0,WSW,16.1,27.6,N/A,,Mostly Cloudy,250,2013-06-16 21:00:00
8:00 PM,84.9,64.0,49,29.84,-9999.0,WSW,13.8,-,N/A,,Scattered Clouds,250,2013-06-17 00:00:00
9:00 PM,81.0,66.0,60,29.85,-9999.0,West,12.7,20.7,N/A,,Clear,260,2013-06-17 01:00:00
10:00 PM,80.1,66.0,62,29.87,-9999.0,West,8.1,-,N/A,,Clear,260,2013-06-17 02:00:00
11:00 PM,78.1,66.0,66,29.87,-9999.0,WSW,4.6,-,N/A,,Clear,250,2013-06-17 03:00:00